Location: Saint-Pons
(44.5935°N, 4.5779°E)
Time: 14:07:22
(UTC+00:00)

Daily predictions for brighter satellites

Satellite Brightness Start Highest point End
(mag) Time Altitude Azimuth Time Altitude Azimuth Time Altitude Azimuth
Cosmos 2297 Rocket 4.3 16:59:36 10° W 17:03:42 20° NW 17:07:49 10° N
Cosmos 1603 3.7 16:59:13 10° NNW 17:04:56 70° ENE 17:10:39 10° SSE
YAOGAN 6 3.8 17:02:12 10° S 17:05:36 46° W 17:09:05 10° NNW
CZ-2D R/B 4.4 17:03:41 10° ESE 17:06:44 23° ENE 17:09:48 10° NNE
RESURS DK-1 2.6 17:03:12 10° SSW 17:07:20 73° WNW 17:11:29 10° NNE
H-2A R/B 3.3 17:05:26 10° E 17:08:40 18° ENE 17:11:56 10° NNE
FengYun 1-2 T 4.2 17:03:20 10° SSE 17:08:50 68° ENE 17:14:24 10° N
Cosmos 2058 Rocket 4.3 17:05:49 10° NNE 17:09:19 22° ENE 17:12:48 10° ESE
ATLAS 2AS CENTAUR R/B 3.6 17:04:04 10° WSW 17:11:51 56° NW 17:19:31 10° NNE
SL-14 R/B 3.2 17:08:50 10° S 17:12:40 68° E 17:16:33 10° NNE
Cosmos 1400 Rocket 4.2 17:11:39 10° NNW 17:15:35 45° W 17:19:27 10° SSW
Meteor 2-10 Rocket 4.3 17:11:19 10° N 17:16:13 31° ENE 17:20:55 10° SE
CREW DRAGON DEMO-1 DEB 4.5 17:14:08 10° NW 17:16:23 20° N 17:18:29 11° NE
Meteor 2-5 Rocket 3.7 17:12:48 10° S 17:18:22 75° E 17:23:54 10° NNE
ATLAS 5 CENTAUR R/B 1.5 17:15:21 10° SW 17:19:18 80° NW 17:23:48 10° NE
Cosmos 773 Rocket 4.0 17:15:58 10° NNW 17:21:03 55° ENE 17:26:04 10° SE
CZ-4B R/B 1.9 17:20:27 10° NNE 17:23:39 38° E 17:26:46 10° S
Landsat 5 4.5 17:23:30 10° N 17:27:18 44° WNW 17:30:58 10° SW
Cosmos 1726 Rocket 3.7 17:23:33 10° N 17:27:48 49° ENE 17:32:03 10° SSE
Cosmos 2263 Rocket 2.6 17:31:54 10° SW 17:37:32 65° WNW 17:43:12 10° NNE
Cosmos 2279 Rocket 4.0 17:33:39 10° N 17:39:57 78° E 17:46:12 10° SSE
Aureole 3 4.4 17:38:32 10° NNE 17:40:38 18° NE 17:40:38 18° NE
SMAP 4.5 17:37:44 10° S 17:42:08 42° W 17:46:34 10° NNW
USA 234 4.2 17:37:30 14° ENE 17:42:11 32° N 17:47:49 10° NW
BREEZE-M DEB (TANK) 3.1 17:39:35 10° WNW 17:43:03 46° SW 17:45:14 10° SE
Cosmos 1455 3.3 17:40:19 10° NNE 17:43:26 23° ENE 17:46:32 10° SE
COSMOS 2455 3.0 17:38:18 10° S 17:44:08 55° ESE 17:49:35 12° NE
COSMO-SKYMED 1 2.5 17:40:24 10° NNE 17:44:44 64° ESE 17:49:02 10° S
Cosmos 1939 Rocket 3.0 17:41:49 10° SSE 17:45:56 85° WSW 17:50:04 10° NNW
Cosmos 1300 3.3 17:43:20 10° NNW 17:47:06 58° W 17:50:50 10° S
Okean-O 3.0 17:45:15 10° SE 17:49:21 39° ENE 17:53:29 10° N
Cosmos 1689 Rocket 3.1 17:50:15 25° ESE 17:50:15 25° ESE 17:52:27 10° SSE
Cosmos 1538 Rocket 4.0 17:46:23 10° NNW 17:51:30 58° ENE 17:56:35 10° SE
Okean O Rocket 3.1 17:49:57 10° SSW 17:54:09 40° W 17:58:20 10° NNW
ARGOS 3.7 17:51:01 10° SE 17:55:44 33° ENE 18:00:29 10° N
ATLAS 3B R/B 4.0 17:49:14 10° NW 17:55:50 46° WSW 18:02:40 10° S
Aureole 2 Rocket 2.7 17:53:24 10° S 17:56:08 34° ESE 17:56:23 33° E
CZ-4 R/B 1.6 17:52:13 10° SSE 17:56:11 48° ENE 18:00:07 10° N
Cosmos 1777 Rocket 3.9 17:50:56 10° SSW 17:56:11 83° ESE 18:01:30 10° NNE
EXPRESS MD2 4.1 17:47:47 10° WNW 17:56:20 76° NNE 17:59:09 22° ESE
Meteor 1-24 Rocket 4.0 17:51:17 10° SSW 17:56:38 66° WNW 18:01:55 10° N
MOS 1 Rocket 3.0 17:53:43 10° NNE 17:58:02 66° E 18:02:16 10° S
Cosmos 1943 4.2 17:53:12 10° NW 17:58:41 51° WSW 18:04:05 10° S
Feng Yun 1-1 Rocket 4.3 17:55:05 10° SSE 18:00:30 81° WSW 18:06:03 10° NNW
OPS 8737 4.5 17:57:30 10° NNW 18:00:44 67° NE 18:04:58 10° SE
Cosmos 1315 Rocket 4.3 17:57:46 10° NNW 18:01:30 40° W 18:05:15 10° SSW
CZ-4 R/B 4.4 17:59:30 10° SSE 18:03:37 88° ENE 18:07:48 10° NNW
CZ-2C R/B 3.6 18:04:57 25° E 18:05:37 26° E 18:10:11 10° SSE
ERS-2 2.0 18:03:34 16° NNE 18:06:27 70° ESE 18:10:04 10° S
Cosmos 1844 4.1 18:01:57 10° S 18:07:09 40° ESE 18:09:55 25° NE
BREEZE-M DEB (TANK) 3.2 18:09:26 10° WNW 18:11:07 25° N 18:11:07 25° N
Cosmos 1833 Rocket 4.4 18:08:19 10° N 18:10:32 15° NNE 18:10:32 15° NNE
SJ-11-01 4.3 18:09:28 10° SSE 18:14:03 56° ENE 18:18:39 10° N
TELKOM 3 3.5 18:11:42 10° SW 18:13:44 53° SSW 18:13:44 53° SSW
YAOGAN 1 2.4 18:13:11 10° SSE 18:17:28 72° ENE 18:21:48 10° N
Cosmos 1892 Rocket 4.1 18:14:30 10° SSW 18:18:46 58° W 18:23:05 10° N
H-2A R/B 4.4 18:15:19 10° NNW 18:18:50 23° WNW 18:22:17 10° WSW
Cosmos 1092 Rocket 4.1 18:13:56 10° SSE 18:19:49 47° E 18:25:41 10° NNE
IRS-1C Rocket 4.3 18:15:27 10° S 18:20:41 72° WSW 18:25:58 10° NNW
NOAA 15 4.5 18:17:40 10° SSE 18:22:54 83° ENE 18:28:13 10° NNW
Meteor 1-21 Rocket 4.1 18:18:33 10° S 18:23:59 62° E 18:29:27 10° NNE
NOSS 3-1 (C) 4.4 18:20:30 10° NNW 18:27:20 41° NE 18:30:09 32° E
X-37B 1.8 18:26:34 10° SW 18:28:57 33° S 18:28:57 33° S
CZ-4C R/B 4.2 18:25:40 10° WNW 18:29:41 20° NNW 18:33:52 11° NNE
ISS -3.3 18:27:41 10° SW 18:30:32 51° S 18:30:32 51° S
Cosmos 1844 Rocket 2.6 18:26:39 10° SSW 18:32:19 79° ESE 18:35:26 28° NNE
Lacrosse 5 1.8 18:29:30 10° NW 18:34:33 63° NE 18:35:29 52° E
Cosmos 990 Rocket 4.4 18:30:08 10° S 18:34:29 40° ESE 18:34:29 40° ESE
Helios 1A Rocket 2.8 18:32:07 10° SSE 18:36:15 88° WSW 18:40:25 10° NNW
Nadezhda 4 Rocket 4.1 18:31:58 10° SSW 18:38:15 78° W 18:44:29 10° N
CZ-2C R/B 4.1 18:34:00 10° S 18:39:02 48° W 18:44:22 10° NNW
SJ 16-02 1.2 18:34:41 10° SSW 18:39:07 88° WNW 18:40:20 48° NNE
DMSP B5D1-3 4.4 18:36:28 19° NNE 18:40:13 82° ESE 18:45:19 10° SSW
Cosmos 44 4.3 18:38:36 10° S 18:41:31 31° SSE 18:41:31 31° SSE
USA 229 DEB 4.4 18:36:59 10° NNW 18:43:40 38° NE 18:44:37 37° NE
USA 229 4.4 18:37:05 10° NNW 18:43:45 38° NE 18:44:40 36° NE
H-2A R/B 2.3 18:42:37 10° S 18:47:31 66° WSW 18:52:35 10° NNW
USA 267 3.4 18:48:30 46° E 18:49:55 54° SE 18:56:17 10° SSW
Cosmos 923 Rocket 3.9 18:47:56 10° NNW 18:53:19 87° ENE 18:55:17 40° SSE
CSL-04 Rocket 3.6 18:49:55 10° SSE 18:55:18 85° WSW 19:00:49 10° NNW
CZ-4B R/B 4.5 18:53:46 10° NNW 18:55:29 13° WNW 18:57:12 10° W
NOSS 3-1 (A) 4.4 18:52:25 10° NNW 18:59:18 41° NE 18:59:43 41° NE
Cosmos 1898 Rocket 4.1 18:55:06 10° S 18:58:42 41° SSE 18:58:42 41° SSE
Cosmos 1680 Rocket 3.4 18:55:49 10° NNW 19:00:39 72° NNE 19:00:39 72° NNE
Cosmos 1818 3.8 18:58:45 10° SW 19:04:09 65° NW 19:05:20 51° N
Cosmos 2344 4.3 18:55:25 10° NW 19:04:29 59° NE 19:08:26 42° E
ATLAS 5 CENTAUR R/B 3.9 19:02:07 10° WNW 19:04:48 16° NNW 19:06:01 15° N
Cosmos 2098 Rocket 4.2 18:58:37 10° S 19:05:29 69° E 19:12:53 10° NNE
Cosmos 158 Rocket 4.3 19:01:07 10° NNW 19:06:25 67° WSW 19:09:28 26° S
Cosmos 2026 Rocket 3.9 19:09:25 10° S 19:15:31 85° W 19:18:42 31° N
Cosmos 1455 4.4 19:15:50 10° NW 19:18:57 24° W 19:22:05 10° SW
USA 234 3.5 19:24:50 54° NNE 19:24:50 54° NNE 19:30:45 10° NW
COSMOS 2455 4.3 19:25:04 10° WSW 19:30:23 31° NW 19:32:46 24° N
Iridium 4 Rocket 4.4 19:24:57 10° NNW 19:30:29 52° W 19:35:37 10° SSW
CZ-4 R/B 4.4 19:29:02 10° SW 19:31:27 15° W 19:33:51 10° NW
CZ-2C R/B 3.5 19:46:27 48° W 19:46:27 48° W 19:51:26 10° SW
Lacrosse 5 4.4 20:13:02 10° WNW 20:14:44 18° W 20:14:44 18° W
NOSS 3-1 (C) 4.5 20:11:11 10° NW 20:17:36 59° W 20:17:36 59° W
